Zurück zum Katalog

GEESAT 6-04

AktivKommunikationLEO
NORAD 65716·PAYLOAD·🇨🇳 China

Gestartet Sep 24, 2025 von Yellow Sea Launch Area

Loading…

Nächste Überflüge (nächste 24 Stunden)

TLE

AktuellSource: Space-Track

Epoche: Sep 14, 2026, 22:49 UTC

1 65716U 25214E   26257.95095689  .00001282  00000-0  18108-3 0  9996
2 65716  49.9842 252.2272 0009320 213.0444 146.9913 14.83597999 52832

Verfolge GEESAT 6-04 in Echtzeit mit AllMySat

Download on the App Store